Flag for Germany Weather past 2 weeks in Gerolstein, Rhineland-Palatinate, Germany

Now
33 °F

Passing clouds.


Feels Like: 33 °F
Forecast: 34 / 39 °F
Wind: 2 mph from West

Location: Nuerburg-Barweiler

Current Time: Mar 4, 2015 at 1:28:43 AM

Latest Report: Mar 4, 2015 at 1:00 AM


Visibility: 8 mi

Pressure: 30.17 "Hg

Humidity: 99%

Dew point: 33 °F

Location of GerolsteinLocation

Historic Weather in Gerolstein — Graph

°F

Gerolstein temperature yesterday

Maximum temperature yesterday: 44 °F (at 3:00 PM)
Minimum temperature yesterday: 31 °F (at 8:00 AM)
Average temperature yesterday: 36 °F

Past Weeks' High & Low Weather Summary

 TemperatureHumidityPressure
High46 °F (Mar 1, 2:00 PM)100% (Feb 17, 3:00 AM)30.78 "Hg (Feb 17, 3:00 AM)
Low27 °F (Feb 28, 6:00 AM)56% (Mar 2, 2:00 PM)29.41 "Hg (Feb 21, 4:00 AM)
Average35 °F89%29.98 "Hg
* Reported Midnight between Feb 16 and Feb 17 — Midnight between Mar 3 and Mar 4, Gerolstein, Weather by CustomWeather, © 2015

Note: Actual official high and low records may vary slightly from our data, if they occured in-between our weather recording intervals... More about our weather records

Advertising

Gerolstein weather history for previous 24 hours

 ConditionsComfort  
Time TempWeatherWind HumidityBarometerVisibility
12:00 AM
Wed, Mar 4
32 °FSnow. Low clouds.5 mph99%30.17 "Hg0 mi
11:00 PM
Tue, Mar 3
35 °FOvercast.3 mph94%30.13 "Hg15 mi
9:00 PM35 °FOvercast.6 mph95%30.10 "Hg34 mi
8:00 PM35 °FOvercast.5 mph93%30.07 "Hg34 mi
7:00 PM34 °FLow clouds.6 mph97%30.08 "Hg25 mi
6:00 PM40 °FLight rain. Low clouds.7 mph80%30.03 "Hg7 mi
5:00 PM40 °FLight rain. Low clouds.8 mph73%30.03 "Hg25 mi
3:00 PM44 °FPartly sunny.12 mph58%30.02 "Hg31 mi
2:00 PM44 °FScattered clouds.9 mph59%30.04 "Hg34 mi
1:00 PM42 °FPassing clouds.8 mph66%30.06 "Hg28 mi
12:00 PM40 °FOvercast.7 mph70%30.10 "Hg19 mi
11:00 AM37 °FPartly sunny.5 mph73%30.13 "Hg19 mi
10:00 AM35 °FPassing clouds.5 mph76%30.15 "Hg31 mi
9:00 AM33 °FPassing clouds.5 mph85%30.15 "Hg22 mi
8:00 AM31 °FPassing clouds.5 mph90%30.15 "Hg17 mi
7:00 AM32 °FPassing clouds.7 mph87%30.14 "Hg19 mi
6:00 AM33 °FOvercast.7 mph87%30.13 "Hg17 mi
5:00 AM32 °FOvercast.7 mph88%30.12 "Hg19 mi
4:00 AM32 °FPassing clouds.6 mph87%30.13 "Hg19 mi
3:00 AM32 °FClear.6 mph87%30.13 "Hg19 mi
2:00 AM32 °FPassing clouds.5 mph88%30.12 "Hg19 mi
1:00 AM33 °FClear.5 mph89%30.10 "Hg19 mi
Weather by CustomWeather, © 2015

See weather overviewHow to use our weather pages